Year,Month,Day,Hour,Minute,Value (Times are PST for temperature in C)
2014,02,03,00,00,1.60
2014,02,03,00,01,1.60
2014,02,03,00,02,1.60
2014,02,03,00,03,1.60
2014,02,03,00,04,1.60
2014,02,03,00,05,1.60
2014,02,03,00,06,1.60
2014,02,03,00,07,1.60
2014,02,03,00,08,1.50
2014,02,03,00,09,1.50
2014,02,03,00,10,1.50
2014,02,03,00,11,1.50
2014,02,03,00,12,1.50
2014,02,03,00,13,1.50
2014,02,03,00,14,1.50
2014,02,03,00,15,1.50
2014,02,03,00,16,1.30
2014,02,03,00,17,1.30
2014,02,03,00,18,1.40
2014,02,03,00,19,1.50
2014,02,03,00,20,1.70
2014,02,03,00,21,1.90
2014,02,03,00,22,2.00
2014,02,03,00,23,2.10
2014,02,03,00,24,2.20
2014,02,03,00,25,2.40
2014,02,03,00,26,2.40
2014,02,03,00,27,2.50
2014,02,03,00,28,2.50
2014,02,03,00,29,2.60
2014,02,03,00,30,2.60
2014,02,03,00,31,2.60
2014,02,03,00,32,2.60
2014,02,03,00,33,2.60
2014,02,03,00,34,2.70
2014,02,03,00,35,2.70
2014,02,03,00,36,2.70
2014,02,03,00,37,2.70
2014,02,03,00,38,2.60
2014,02,03,00,39,2.70
2014,02,03,00,40,2.70
2014,02,03,00,41,2.70
2014,02,03,00,42,2.70
2014,02,03,00,43,2.70
2014,02,03,00,44,2.70
2014,02,03,00,45,2.70
2014,02,03,00,46,2.70
2014,02,03,00,47,2.70
2014,02,03,00,48,2.70
2014,02,03,00,49,2.70
2014,02,03,00,50,2.70
2014,02,03,00,51,2.70
2014,02,03,00,52,2.70
2014,02,03,00,53,2.70
2014,02,03,00,54,2.70
2014,02,03,00,55,2.70
2014,02,03,00,56,2.60
2014,02,03,00,57,2.60
2014,02,03,00,58,2.60
2014,02,03,00,59,2.60
2014,02,03,01,00,2.60
2014,02,03,01,01,2.60
2014,02,03,01,02,2.60
2014,02,03,01,03,2.60
2014,02,03,01,04,2.60
2014,02,03,01,05,2.60
2014,02,03,01,06,2.60
2014,02,03,01,07,2.60
2014,02,03,01,08,2.60
2014,02,03,01,09,2.60
2014,02,03,01,10,2.60
2014,02,03,01,11,2.60
2014,02,03,01,12,2.60
2014,02,03,01,13,2.60
2014,02,03,01,14,2.60
2014,02,03,01,15,2.60
2014,02,03,01,16,2.60
2014,02,03,01,17,2.60
2014,02,03,01,18,2.60
2014,02,03,01,19,2.60
2014,02,03,01,20,2.60
2014,02,03,01,21,2.60
2014,02,03,01,22,2.60
2014,02,03,01,23,2.60
2014,02,03,01,24,2.60
2014,02,03,01,25,2.50
2014,02,03,01,26,2.50
2014,02,03,01,27,2.50
2014,02,03,01,28,2.50
2014,02,03,01,29,2.50
2014,02,03,01,30,2.50
2014,02,03,01,31,2.50
2014,02,03,01,32,2.50
2014,02,03,01,33,2.50
2014,02,03,01,34,2.50
2014,02,03,01,35,2.50
2014,02,03,01,36,2.50
2014,02,03,01,37,2.50
2014,02,03,01,38,2.50
2014,02,03,01,39,2.50
2014,02,03,01,40,2.50
2014,02,03,01,41,2.40
2014,02,03,01,42,2.40
2014,02,03,01,43,2.40
2014,02,03,01,44,2.40
2014,02,03,01,45,2.40
2014,02,03,01,46,2.40
2014,02,03,01,47,2.40
2014,02,03,01,48,2.40
2014,02,03,01,49,2.40
2014,02,03,01,50,2.40
2014,02,03,01,51,2.40
2014,02,03,01,52,2.40
2014,02,03,01,53,2.40
2014,02,03,01,54,2.40
2014,02,03,01,55,2.40
2014,02,03,01,56,2.40
2014,02,03,01,57,2.40
2014,02,03,01,58,2.40
2014,02,03,01,59,2.40
2014,02,03,02,00,2.40
2014,02,03,02,01,2.40
2014,02,03,02,02,2.40
2014,02,03,02,03,2.40
2014,02,03,02,04,2.40
2014,02,03,02,05,2.40
2014,02,03,02,06,2.40
2014,02,03,02,07,2.40
2014,02,03,02,08,2.40
2014,02,03,02,09,2.40
2014,02,03,02,10,2.40
2014,02,03,02,11,2.40
2014,02,03,02,12,2.40
2014,02,03,02,13,2.40
2014,02,03,02,14,2.40
2014,02,03,02,15,2.40
2014,02,03,02,16,2.40
2014,02,03,02,17,2.40
2014,02,03,02,18,2.40
2014,02,03,02,19,2.40
2014,02,03,02,20,2.40
2014,02,03,02,21,2.40
2014,02,03,02,22,2.40
2014,02,03,02,23,2.40
2014,02,03,02,24,2.40
2014,02,03,02,25,2.40
2014,02,03,02,26,2.40
2014,02,03,02,27,2.40
2014,02,03,02,28,2.40
2014,02,03,02,29,2.40
2014,02,03,02,30,2.40
2014,02,03,02,31,2.30
2014,02,03,02,32,2.30
2014,02,03,02,33,2.30
2014,02,03,02,34,2.30
2014,02,03,02,35,2.30
2014,02,03,02,36,2.30
2014,02,03,02,37,2.30
2014,02,03,02,38,2.30
2014,02,03,02,39,2.30
2014,02,03,02,40,2.30
2014,02,03,02,41,2.30
2014,02,03,02,42,2.30
2014,02,03,02,43,2.30
2014,02,03,02,44,2.30
2014,02,03,02,45,2.30
2014,02,03,02,46,2.30
2014,02,03,02,47,2.30
2014,02,03,02,48,2.30
2014,02,03,02,49,2.20
2014,02,03,02,50,2.20
2014,02,03,02,51,2.20
2014,02,03,02,52,2.20
2014,02,03,02,53,2.20
2014,02,03,02,54,2.20
2014,02,03,02,55,2.20
2014,02,03,02,56,2.20
2014,02,03,02,57,2.20
2014,02,03,02,58,2.20
2014,02,03,02,59,2.20
2014,02,03,03,00,2.20
2014,02,03,03,01,2.20
2014,02,03,03,02,2.20
2014,02,03,03,03,2.20
2014,02,03,03,04,2.20
2014,02,03,03,05,2.20
2014,02,03,03,06,2.20
2014,02,03,03,07,2.20
2014,02,03,03,08,2.20
2014,02,03,03,09,2.20
2014,02,03,03,10,2.20
2014,02,03,03,11,2.20
2014,02,03,03,12,2.30
2014,02,03,03,13,2.30
2014,02,03,03,14,2.30
2014,02,03,03,15,2.30
2014,02,03,03,16,2.30
2014,02,03,03,17,2.30
2014,02,03,03,18,2.30
2014,02,03,03,19,2.30
2014,02,03,03,20,2.30
2014,02,03,03,21,2.20
2014,02,03,03,22,2.20
2014,02,03,03,23,2.20
2014,02,03,03,24,2.20
2014,02,03,03,25,2.20
2014,02,03,03,26,2.20
2014,02,03,03,27,2.20
2014,02,03,03,28,2.20
2014,02,03,03,29,2.20
2014,02,03,03,30,2.20
2014,02,03,03,31,2.30
2014,02,03,03,32,2.30
2014,02,03,03,33,2.20
2014,02,03,03,34,2.20
2014,02,03,03,35,2.20
2014,02,03,03,36,2.20
2014,02,03,03,37,2.20
2014,02,03,03,38,2.20
2014,02,03,03,39,2.20
2014,02,03,03,40,2.20
2014,02,03,03,41,2.20
2014,02,03,03,42,2.30
2014,02,03,03,43,2.30
2014,02,03,03,44,2.30
2014,02,03,03,45,2.30
2014,02,03,03,46,2.30
2014,02,03,03,47,2.30
2014,02,03,03,48,2.30
2014,02,03,03,49,2.30
2014,02,03,03,50,2.30
2014,02,03,03,51,2.20
2014,02,03,03,52,2.20
2014,02,03,03,53,2.20
2014,02,03,03,54,2.20
2014,02,03,03,55,2.20
2014,02,03,03,56,2.20
2014,02,03,03,57,2.20
2014,02,03,03,58,2.20
2014,02,03,03,59,2.20
2014,02,03,04,00,2.20
2014,02,03,04,01,2.20
2014,02,03,04,02,2.20
2014,02,03,04,03,2.20
2014,02,03,04,04,2.20
2014,02,03,04,05,2.20
2014,02,03,04,06,2.20
2014,02,03,04,07,2.20
2014,02,03,04,08,2.20
2014,02,03,04,09,2.20
2014,02,03,04,10,2.20
2014,02,03,04,11,2.20
2014,02,03,04,12,2.20
2014,02,03,04,13,2.20
2014,02,03,04,14,2.20
2014,02,03,04,15,2.20
2014,02,03,04,16,2.20
2014,02,03,04,17,2.20
2014,02,03,04,18,2.20
2014,02,03,04,19,2.20
2014,02,03,04,20,2.20
2014,02,03,04,21,2.20
2014,02,03,04,22,2.20
2014,02,03,04,23,2.20
2014,02,03,04,24,2.20
2014,02,03,04,25,2.20
2014,02,03,04,26,2.20
2014,02,03,04,27,2.20
2014,02,03,04,28,2.20
2014,02,03,04,29,2.20
2014,02,03,04,30,2.20
2014,02,03,04,31,2.20
2014,02,03,04,32,2.20
2014,02,03,04,33,2.20
2014,02,03,04,34,2.20
2014,02,03,04,35,2.20
2014,02,03,04,36,2.20
2014,02,03,04,37,2.20
2014,02,03,04,38,2.20
2014,02,03,04,39,2.20
2014,02,03,04,40,2.20
2014,02,03,04,41,2.20
2014,02,03,04,42,2.20
2014,02,03,04,43,2.20
2014,02,03,04,44,2.20
2014,02,03,04,45,2.20
2014,02,03,04,46,2.20
2014,02,03,04,47,2.20
2014,02,03,04,48,2.10
2014,02,03,04,49,2.10
2014,02,03,04,50,2.10
2014,02,03,04,51,2.10
2014,02,03,04,52,2.20
2014,02,03,04,53,2.20
2014,02,03,04,54,2.20
2014,02,03,04,55,2.20
2014,02,03,04,56,2.20
2014,02,03,04,57,2.20
2014,02,03,04,58,2.20
2014,02,03,04,59,2.20
2014,02,03,05,00,2.20
2014,02,03,05,01,2.20
2014,02,03,05,02,2.20
2014,02,03,05,03,2.20
2014,02,03,05,04,2.20
2014,02,03,05,05,2.20
2014,02,03,05,06,2.20
2014,02,03,05,07,2.20
2014,02,03,05,08,2.20
2014,02,03,05,09,2.20
2014,02,03,05,10,2.10
2014,02,03,05,11,2.10
2014,02,03,05,12,2.10
2014,02,03,05,13,2.10
2014,02,03,05,14,2.10
2014,02,03,05,15,2.10
2014,02,03,05,16,2.10
2014,02,03,05,17,2.10
2014,02,03,05,18,2.10
2014,02,03,05,19,2.10
2014,02,03,05,20,2.10
2014,02,03,05,21,2.10
2014,02,03,05,22,2.10
2014,02,03,05,23,2.10
2014,02,03,05,24,2.10
2014,02,03,05,25,2.10
2014,02,03,05,26,2.10
2014,02,03,05,27,2.10
2014,02,03,05,28,2.10
2014,02,03,05,29,2.10
2014,02,03,05,30,2.10
2014,02,03,05,31,2.10
2014,02,03,05,32,2.10
2014,02,03,05,33,2.10
2014,02,03,05,34,2.10
2014,02,03,05,35,2.10
2014,02,03,05,36,2.10
2014,02,03,05,37,2.10
2014,02,03,05,38,2.10
2014,02,03,05,39,2.10
2014,02,03,05,40,2.10
2014,02,03,05,41,2.10
2014,02,03,05,42,2.00
2014,02,03,05,43,2.00
2014,02,03,05,44,2.00
2014,02,03,05,45,2.00
2014,02,03,05,46,2.00
2014,02,03,05,47,2.00
2014,02,03,05,48,2.00
2014,02,03,05,49,2.00
2014,02,03,05,50,2.00
2014,02,03,05,51,2.00
2014,02,03,05,52,2.00
2014,02,03,05,53,1.90
2014,02,03,05,54,1.90
2014,02,03,05,55,1.90
2014,02,03,05,56,1.90
2014,02,03,05,57,1.90
2014,02,03,05,58,1.90
2014,02,03,05,59,1.90
2014,02,03,06,00,1.90
2014,02,03,06,01,1.90
2014,02,03,06,02,1.80
2014,02,03,06,03,1.80
2014,02,03,06,04,1.80
2014,02,03,06,05,1.80
2014,02,03,06,06,1.80
2014,02,03,06,07,1.80
2014,02,03,06,08,1.80
2014,02,03,06,09,1.80
2014,02,03,06,10,1.80
2014,02,03,06,11,1.80
2014,02,03,06,12,1.80
2014,02,03,06,13,1.80
2014,02,03,06,14,1.80
2014,02,03,06,15,1.80
2014,02,03,06,16,1.80
2014,02,03,06,17,1.80
2014,02,03,06,18,1.80
2014,02,03,06,19,1.70
2014,02,03,06,20,1.70
2014,02,03,06,21,1.70
2014,02,03,06,22,1.70
2014,02,03,06,23,1.70
2014,02,03,06,24,1.70
2014,02,03,06,25,1.70
2014,02,03,06,26,1.70
2014,02,03,06,27,1.70
2014,02,03,06,28,1.70
2014,02,03,06,29,1.70
2014,02,03,06,30,1.70
2014,02,03,06,31,1.70
2014,02,03,06,32,1.70
2014,02,03,06,33,1.70
2014,02,03,06,34,1.70
2014,02,03,06,35,1.70
2014,02,03,06,36,1.70
2014,02,03,06,37,1.70
2014,02,03,06,38,1.70
2014,02,03,06,39,1.80
2014,02,03,06,40,1.80
2014,02,03,06,41,1.80
2014,02,03,06,42,1.80
2014,02,03,06,43,1.80
2014,02,03,06,44,1.90
2014,02,03,06,45,1.90
2014,02,03,06,46,1.90
2014,02,03,06,47,1.90
2014,02,03,06,48,1.90
2014,02,03,06,49,1.90
2014,02,03,06,50,1.90
2014,02,03,06,51,1.90
2014,02,03,06,52,1.90
2014,02,03,06,53,1.90
2014,02,03,06,54,1.90
2014,02,03,06,55,1.90
2014,02,03,06,56,1.90
2014,02,03,06,57,1.90
2014,02,03,06,58,1.90
2014,02,03,06,59,1.90
2014,02,03,07,00,1.90
2014,02,03,07,01,1.90
2014,02,03,07,02,1.90
2014,02,03,07,03,1.90
2014,02,03,07,04,1.90
2014,02,03,07,05,1.90
2014,02,03,07,06,1.90
2014,02,03,07,07,1.90
2014,02,03,07,08,1.90
2014,02,03,07,09,1.90
2014,02,03,07,10,1.90
2014,02,03,07,11,1.90
2014,02,03,07,12,1.90
2014,02,03,07,13,1.90
2014,02,03,07,14,2.00
2014,02,03,07,15,1.90
2014,02,03,07,16,1.90
2014,02,03,07,17,1.90
2014,02,03,07,18,1.90
2014,02,03,07,19,1.90
2014,02,03,07,20,1.90
2014,02,03,07,21,2.00
2014,02,03,07,22,2.00
2014,02,03,07,23,2.00
2014,02,03,07,24,2.00
2014,02,03,07,25,2.00
2014,02,03,07,26,2.00
2014,02,03,07,27,2.00
2014,02,03,07,28,2.00
2014,02,03,07,29,2.00
2014,02,03,07,30,2.00
2014,02,03,07,31,2.00
2014,02,03,07,32,2.00
2014,02,03,07,33,2.00
2014,02,03,07,34,2.00
2014,02,03,07,35,2.00
2014,02,03,07,36,2.00
2014,02,03,07,37,2.00
2014,02,03,07,38,1.90
2014,02,03,07,39,1.90
2014,02,03,07,40,2.00
2014,02,03,07,41,1.90
2014,02,03,07,42,2.00
2014,02,03,07,43,2.00
2014,02,03,07,44,2.00
2014,02,03,07,45,2.00
2014,02,03,07,46,2.10
2014,02,03,07,47,2.10
2014,02,03,07,48,2.10
2014,02,03,07,49,2.10
2014,02,03,07,50,2.10
2014,02,03,07,51,2.10
2014,02,03,07,52,2.10
2014,02,03,07,53,2.10
2014,02,03,07,54,2.10
2014,02,03,07,55,2.10
2014,02,03,07,56,2.10
2014,02,03,07,57,2.10
2014,02,03,07,58,2.10
2014,02,03,07,59,2.10
2014,02,03,08,00,2.10
2014,02,03,08,01,2.10
2014,02,03,08,02,2.10
2014,02,03,08,03,2.10
2014,02,03,08,04,2.10
2014,02,03,08,05,2.20
2014,02,03,08,06,2.20
2014,02,03,08,07,2.20
2014,02,03,08,08,2.20
2014,02,03,08,09,2.20
2014,02,03,08,10,2.30
2014,02,03,08,11,2.30
2014,02,03,08,12,2.30
2014,02,03,08,13,2.30
2014,02,03,08,14,2.20
2014,02,03,08,15,2.20
2014,02,03,08,16,2.20
2014,02,03,08,17,2.20
2014,02,03,08,18,2.20
2014,02,03,08,19,2.20
2014,02,03,08,20,2.30
2014,02,03,08,21,2.30
2014,02,03,08,22,2.30
2014,02,03,08,23,2.30
2014,02,03,08,24,2.30
2014,02,03,08,25,2.30
2014,02,03,08,26,2.30
2014,02,03,08,27,2.30
2014,02,03,08,28,2.30
2014,02,03,08,29,2.30
2014,02,03,08,30,2.30
2014,02,03,08,31,2.30
2014,02,03,08,32,2.30
2014,02,03,08,33,2.30
2014,02,03,08,34,2.30
2014,02,03,08,35,2.30
2014,02,03,08,36,2.30
2014,02,03,08,37,2.30
2014,02,03,08,38,2.30
2014,02,03,08,39,2.30
2014,02,03,08,40,2.30
2014,02,03,08,41,2.30
2014,02,03,08,42,2.40
2014,02,03,08,43,2.40
2014,02,03,08,44,2.40
2014,02,03,08,45,2.40
2014,02,03,08,46,2.40
2014,02,03,08,47,2.40
2014,02,03,08,48,2.40
2014,02,03,08,49,2.40
2014,02,03,08,50,2.40
2014,02,03,08,51,2.40
2014,02,03,08,52,2.40
2014,02,03,08,53,2.40
2014,02,03,08,54,2.40
2014,02,03,08,55,2.40
2014,02,03,08,56,2.40
2014,02,03,08,57,2.40
2014,02,03,08,58,2.40
2014,02,03,08,59,2.50
2014,02,03,09,00,2.50
2014,02,03,09,01,2.50
2014,02,03,09,02,2.50
2014,02,03,09,03,2.50
2014,02,03,09,04,2.50
2014,02,03,09,05,2.50
2014,02,03,09,06,2.50
2014,02,03,09,07,2.50
2014,02,03,09,08,2.50
2014,02,03,09,09,2.60
2014,02,03,09,10,2.60
2014,02,03,09,11,2.60
2014,02,03,09,12,2.60
2014,02,03,09,13,2.70
2014,02,03,09,14,2.70
2014,02,03,09,15,2.60
2014,02,03,09,16,2.60
2014,02,03,09,17,2.60
2014,02,03,09,18,2.60
2014,02,03,09,19,2.60
2014,02,03,09,20,2.60
2014,02,03,09,21,2.60
2014,02,03,09,22,2.60
2014,02,03,09,23,2.70
2014,02,03,09,24,2.70
2014,02,03,09,25,2.70
2014,02,03,09,26,2.70
2014,02,03,09,27,2.70
2014,02,03,09,28,2.70
2014,02,03,09,29,2.70
2014,02,03,09,30,2.70
2014,02,03,09,31,2.70
2014,02,03,09,32,2.70
2014,02,03,09,33,2.70
2014,02,03,09,34,2.70
2014,02,03,09,35,2.70
2014,02,03,09,36,2.80
2014,02,03,09,37,2.80
2014,02,03,09,38,2.80
2014,02,03,09,39,2.80
2014,02,03,09,40,2.80
2014,02,03,09,41,2.80
2014,02,03,09,42,2.80
2014,02,03,09,43,2.80
2014,02,03,09,44,2.80
2014,02,03,09,45,2.80
2014,02,03,09,46,2.80
2014,02,03,09,47,2.80
2014,02,03,09,48,2.80
2014,02,03,09,49,2.80
2014,02,03,09,50,2.90
2014,02,03,09,51,2.90
2014,02,03,09,52,2.90
2014,02,03,09,53,2.90
2014,02,03,09,54,2.90
2014,02,03,09,55,2.90
2014,02,03,09,56,2.90
2014,02,03,09,57,2.90
2014,02,03,09,58,2.90
2014,02,03,09,59,2.90
2014,02,03,10,00,2.90
2014,02,03,10,01,2.90
2014,02,03,10,02,2.90
2014,02,03,10,03,2.90
2014,02,03,10,04,2.90
2014,02,03,10,05,2.90
2014,02,03,10,06,2.90
2014,02,03,10,07,2.90
2014,02,03,10,08,2.90
2014,02,03,10,09,2.80
2014,02,03,10,10,2.90
2014,02,03,10,11,2.90
2014,02,03,10,12,2.90
2014,02,03,10,13,2.90
2014,02,03,10,14,3.00
2014,02,03,10,15,3.10
2014,02,03,10,16,3.10
2014,02,03,10,17,3.10
2014,02,03,10,18,3.10
2014,02,03,10,19,3.20
2014,02,03,10,20,3.20
2014,02,03,10,21,3.10
2014,02,03,10,22,3.10
2014,02,03,10,23,3.10
2014,02,03,10,24,3.10
2014,02,03,10,25,3.10
2014,02,03,10,26,3.10
2014,02,03,10,27,3.10
2014,02,03,10,28,3.10
2014,02,03,10,29,3.10
2014,02,03,10,30,3.10
2014,02,03,10,31,3.10
2014,02,03,10,32,3.10
2014,02,03,10,33,3.10
2014,02,03,10,34,3.10
2014,02,03,10,35,3.10
2014,02,03,10,36,3.10
2014,02,03,10,37,3.10
2014,02,03,10,38,3.20
2014,02,03,10,39,3.20
2014,02,03,10,40,3.20
2014,02,03,10,41,3.20
2014,02,03,10,42,3.20
2014,02,03,10,43,3.20
2014,02,03,10,44,3.20
2014,02,03,10,45,3.20
2014,02,03,10,46,3.20
2014,02,03,10,47,3.20
2014,02,03,10,48,3.20
2014,02,03,10,49,3.20
2014,02,03,10,50,3.20
2014,02,03,10,51,3.20
2014,02,03,10,52,3.20
2014,02,03,10,53,3.20
2014,02,03,10,54,3.20
2014,02,03,10,55,3.20
2014,02,03,10,56,3.20
2014,02,03,10,57,3.30
2014,02,03,10,58,3.30
2014,02,03,10,59,3.30
2014,02,03,11,00,3.30
2014,02,03,11,01,3.30
2014,02,03,11,02,3.30
2014,02,03,11,03,3.40
2014,02,03,11,04,3.40
2014,02,03,11,05,3.40
2014,02,03,11,06,3.40
2014,02,03,11,07,3.40
2014,02,03,11,08,3.40
2014,02,03,11,09,3.40
2014,02,03,11,10,3.40
2014,02,03,11,11,3.40
2014,02,03,11,12,3.40
2014,02,03,11,13,3.40
2014,02,03,11,14,3.40
2014,02,03,11,15,3.40
2014,02,03,11,16,3.40
2014,02,03,11,17,3.40
2014,02,03,11,18,3.40
2014,02,03,11,19,3.30
2014,02,03,11,20,3.30
2014,02,03,11,21,3.30
2014,02,03,11,22,3.30
2014,02,03,11,23,3.30
2014,02,03,11,24,3.30
2014,02,03,11,25,3.30
2014,02,03,11,26,3.40
2014,02,03,11,27,3.40
2014,02,03,11,28,3.40
2014,02,03,11,29,3.40
2014,02,03,11,30,3.50
2014,02,03,11,31,3.50
2014,02,03,11,32,3.50
2014,02,03,11,33,3.50
2014,02,03,11,34,3.50
2014,02,03,11,35,3.50
2014,02,03,11,36,3.50
2014,02,03,11,37,3.50
2014,02,03,11,38,3.50
2014,02,03,11,39,3.50
2014,02,03,11,40,3.50
2014,02,03,11,41,3.50
2014,02,03,11,42,3.50
2014,02,03,11,43,3.50
2014,02,03,11,44,3.50
2014,02,03,11,45,3.60
2014,02,03,11,46,3.60
2014,02,03,11,47,3.60
2014,02,03,11,48,3.70
2014,02,03,11,49,3.70
2014,02,03,11,50,3.70
2014,02,03,11,51,3.70
2014,02,03,11,52,3.70
2014,02,03,11,53,3.80
2014,02,03,11,54,3.80
2014,02,03,11,55,3.80
2014,02,03,11,56,3.70
2014,02,03,11,57,3.70
2014,02,03,11,58,3.70
2014,02,03,11,59,3.70
2014,02,03,12,00,3.70
2014,02,03,12,01,3.70
2014,02,03,12,02,3.70
2014,02,03,12,03,3.70
2014,02,03,12,04,3.70
2014,02,03,12,05,3.70
2014,02,03,12,06,3.70
2014,02,03,12,07,3.80
2014,02,03,12,08,3.80
2014,02,03,12,09,3.80
2014,02,03,12,10,3.80
2014,02,03,12,11,3.80
2014,02,03,12,12,3.90
2014,02,03,12,13,3.90
2014,02,03,12,14,3.90
2014,02,03,12,15,3.90
2014,02,03,12,16,3.90
2014,02,03,12,17,4.00
2014,02,03,12,18,4.00
2014,02,03,12,19,4.00
2014,02,03,12,20,4.10
2014,02,03,12,21,4.10
2014,02,03,12,22,4.10
2014,02,03,12,23,4.10
2014,02,03,12,24,4.10
2014,02,03,12,25,4.10
2014,02,03,12,26,4.00
2014,02,03,12,27,3.90
2014,02,03,12,28,3.90
2014,02,03,12,29,3.90
2014,02,03,12,30,3.90
2014,02,03,12,31,3.90
2014,02,03,12,32,3.90
2014,02,03,12,33,3.90
2014,02,03,12,34,4.00
2014,02,03,12,35,4.00
2014,02,03,12,36,4.00
2014,02,03,12,37,4.10
2014,02,03,12,38,4.10
2014,02,03,12,39,4.10
2014,02,03,12,40,4.00
2014,02,03,12,41,3.90
2014,02,03,12,42,3.90
2014,02,03,12,43,3.90
2014,02,03,12,44,3.90
2014,02,03,12,45,4.00
2014,02,03,12,46,4.00
2014,02,03,12,47,4.00
2014,02,03,12,48,3.90
2014,02,03,12,49,3.90
2014,02,03,12,50,3.90
2014,02,03,12,51,3.90
2014,02,03,12,52,3.90
2014,02,03,12,53,3.90
2014,02,03,12,54,3.90
2014,02,03,12,55,3.90
2014,02,03,12,56,4.00
2014,02,03,12,57,4.00
2014,02,03,12,58,4.00
2014,02,03,12,59,4.00
2014,02,03,13,00,4.00
2014,02,03,13,01,4.00
2014,02,03,13,02,3.90
2014,02,03,13,03,3.90
2014,02,03,13,04,3.90
2014,02,03,13,05,3.90
2014,02,03,13,06,3.80
2014,02,03,13,07,3.80
2014,02,03,13,08,3.80
2014,02,03,13,09,3.90
2014,02,03,13,10,3.90
2014,02,03,13,11,3.90
2014,02,03,13,12,3.90
2014,02,03,13,13,3.90
2014,02,03,13,14,3.90
2014,02,03,13,15,3.90
2014,02,03,13,16,3.90
2014,02,03,13,17,4.00
2014,02,03,13,18,4.00
2014,02,03,13,19,4.00
2014,02,03,13,20,4.10
2014,02,03,13,21,4.10
2014,02,03,13,22,4.10
2014,02,03,13,23,4.10
2014,02,03,13,24,4.10
2014,02,03,13,25,4.10
2014,02,03,13,26,4.10
2014,02,03,13,27,4.00
2014,02,03,13,28,4.00
2014,02,03,13,29,4.10
2014,02,03,13,30,4.10
2014,02,03,13,31,4.10
2014,02,03,13,32,4.10
2014,02,03,13,33,4.10
2014,02,03,13,34,4.10
2014,02,03,13,35,4.10
2014,02,03,13,36,4.10
2014,02,03,13,37,4.00
2014,02,03,13,38,4.00
2014,02,03,13,39,4.00
2014,02,03,13,40,4.00
2014,02,03,13,41,4.00
2014,02,03,13,42,4.10
2014,02,03,13,43,4.10
2014,02,03,13,44,4.10
2014,02,03,13,45,4.10
2014,02,03,13,46,4.10
2014,02,03,13,47,4.10
2014,02,03,13,48,4.10
2014,02,03,13,49,4.10
2014,02,03,13,50,4.20
2014,02,03,13,51,4.20
2014,02,03,13,52,4.20
2014,02,03,13,53,4.20
2014,02,03,13,54,4.20
2014,02,03,13,55,4.20
2014,02,03,13,56,4.10
2014,02,03,13,57,4.10
2014,02,03,13,58,4.10
2014,02,03,13,59,4.10
2014,02,03,14,00,4.10
2014,02,03,14,01,4.10
2014,02,03,14,02,4.10
2014,02,03,14,03,4.00
2014,02,03,14,04,4.00
2014,02,03,14,05,4.00
2014,02,03,14,06,4.00
2014,02,03,14,07,4.00
2014,02,03,14,08,4.10
2014,02,03,14,09,4.10
2014,02,03,14,10,4.10
2014,02,03,14,11,4.10
2014,02,03,14,12,4.20
2014,02,03,14,13,4.20
2014,02,03,14,14,4.20
2014,02,03,14,15,4.20
2014,02,03,14,16,4.20
2014,02,03,14,17,4.20
2014,02,03,14,18,4.20
2014,02,03,14,19,4.20
2014,02,03,14,20,4.20
2014,02,03,14,21,4.20
2014,02,03,14,22,4.20
2014,02,03,14,23,4.20
2014,02,03,14,24,4.20
2014,02,03,14,25,4.20
2014,02,03,14,26,4.20
2014,02,03,14,27,4.30
2014,02,03,14,28,4.30
2014,02,03,14,29,4.20
2014,02,03,14,30,4.20
2014,02,03,14,31,4.20
2014,02,03,14,32,4.20
2014,02,03,14,33,4.20
2014,02,03,14,34,4.20
2014,02,03,14,35,4.20
2014,02,03,14,36,4.20
2014,02,03,14,37,4.20
2014,02,03,14,38,4.10
2014,02,03,14,39,4.10
2014,02,03,14,40,4.10
2014,02,03,14,41,4.10
2014,02,03,14,42,4.20
2014,02,03,14,43,4.20
2014,02,03,14,44,4.20
2014,02,03,14,45,4.30
2014,02,03,14,46,4.30
2014,02,03,14,47,4.30
2014,02,03,14,48,4.30
2014,02,03,14,49,4.30
2014,02,03,14,50,4.30
2014,02,03,14,51,4.30
2014,02,03,14,52,4.20
2014,02,03,14,53,4.20
2014,02,03,14,54,4.20
2014,02,03,14,55,4.20
2014,02,03,14,56,4.10
2014,02,03,14,57,4.10
2014,02,03,14,58,4.10
2014,02,03,14,59,4.10
2014,02,03,15,00,4.10
2014,02,03,15,01,4.10
2014,02,03,15,02,4.10
2014,02,03,15,03,4.10
2014,02,03,15,04,4.10
2014,02,03,15,05,4.10
2014,02,03,15,06,4.10
2014,02,03,15,07,4.10
2014,02,03,15,08,4.10
2014,02,03,15,09,4.10
2014,02,03,15,10,4.10
2014,02,03,15,11,4.10
2014,02,03,15,12,4.10
2014,02,03,15,13,4.10
2014,02,03,15,14,4.10
2014,02,03,15,15,4.10
2014,02,03,15,16,4.10
2014,02,03,15,17,4.10
2014,02,03,15,18,4.10
2014,02,03,15,19,4.10
2014,02,03,15,20,4.10
2014,02,03,15,21,4.10
2014,02,03,15,22,4.10
2014,02,03,15,23,4.10
2014,02,03,15,24,4.10
2014,02,03,15,25,4.10
2014,02,03,15,26,4.10
2014,02,03,15,27,4.10
2014,02,03,15,28,4.10
2014,02,03,15,29,4.10
2014,02,03,15,30,4.10
2014,02,03,15,31,4.10
2014,02,03,15,32,4.20
2014,02,03,15,33,4.20
2014,02,03,15,34,4.20
2014,02,03,15,35,4.20
2014,02,03,15,36,4.20
2014,02,03,15,37,4.20
2014,02,03,15,38,4.20
2014,02,03,15,39,4.20
2014,02,03,15,40,4.10
2014,02,03,15,41,4.10
2014,02,03,15,42,4.10
2014,02,03,15,43,4.10
2014,02,03,15,44,4.10
2014,02,03,15,45,4.10
2014,02,03,15,46,4.10
2014,02,03,15,47,4.10
2014,02,03,15,48,4.10
2014,02,03,15,49,4.10
2014,02,03,15,50,4.10
2014,02,03,15,51,4.20
2014,02,03,15,52,4.20
2014,02,03,15,53,4.20
2014,02,03,15,54,4.20
2014,02,03,15,55,4.20
2014,02,03,15,56,4.20
2014,02,03,15,57,4.20
2014,02,03,15,58,4.20
2014,02,03,15,59,4.20
2014,02,03,16,00,4.10
2014,02,03,16,01,4.10
2014,02,03,16,02,4.10
2014,02,03,16,03,4.10
2014,02,03,16,04,4.10
2014,02,03,16,05,4.10
2014,02,03,16,06,4.00
2014,02,03,16,07,4.00
2014,02,03,16,08,4.00
2014,02,03,16,09,4.00
2014,02,03,16,10,4.00
2014,02,03,16,11,4.00
2014,02,03,16,12,4.00
2014,02,03,16,13,3.90
2014,02,03,16,14,3.90
2014,02,03,16,15,3.90
2014,02,03,16,16,3.90
2014,02,03,16,17,3.90
2014,02,03,16,18,3.90
2014,02,03,16,19,3.90
2014,02,03,16,20,3.90
2014,02,03,16,21,3.90
2014,02,03,16,22,3.90
2014,02,03,16,23,3.90
2014,02,03,16,24,3.80
2014,02,03,16,25,3.80
2014,02,03,16,26,3.80
2014,02,03,16,27,3.80
2014,02,03,16,28,3.70
2014,02,03,16,29,3.70
2014,02,03,16,30,3.70
2014,02,03,16,31,3.70
2014,02,03,16,32,3.70
2014,02,03,16,33,3.70
2014,02,03,16,34,3.70
2014,02,03,16,35,3.70
2014,02,03,16,36,3.70
2014,02,03,16,37,3.70
2014,02,03,16,38,3.70
2014,02,03,16,39,3.70
2014,02,03,16,40,3.70
2014,02,03,16,41,3.60
2014,02,03,16,42,3.70
2014,02,03,16,43,3.70
2014,02,03,16,44,3.60
2014,02,03,16,45,3.60
2014,02,03,16,46,3.60
2014,02,03,16,47,3.60
2014,02,03,16,48,3.60
2014,02,03,16,49,3.60
2014,02,03,16,50,3.60
2014,02,03,16,51,3.60
2014,02,03,16,52,3.50
2014,02,03,16,53,3.50
2014,02,03,16,54,3.50
2014,02,03,16,55,3.50
2014,02,03,16,56,3.50
2014,02,03,16,57,3.50
2014,02,03,16,58,3.40
2014,02,03,16,59,3.40
2014,02,03,17,00,3.40
2014,02,03,17,01,3.40
2014,02,03,17,02,3.40
2014,02,03,17,03,3.30
2014,02,03,17,04,3.30
2014,02,03,17,05,3.30
2014,02,03,17,06,3.30
2014,02,03,17,07,3.30
2014,02,03,17,08,3.30
2014,02,03,17,09,3.30
2014,02,03,17,10,3.30
2014,02,03,17,11,3.30
2014,02,03,17,12,3.30
2014,02,03,17,13,3.30
2014,02,03,17,14,3.30
2014,02,03,17,15,3.20
2014,02,03,17,16,3.20
2014,02,03,17,17,3.20
2014,02,03,17,18,3.20
2014,02,03,17,19,3.20
2014,02,03,17,20,3.20
2014,02,03,17,21,3.20
2014,02,03,17,22,3.20
2014,02,03,17,23,3.20
2014,02,03,17,24,3.20
2014,02,03,17,25,3.20
2014,02,03,17,26,3.20
2014,02,03,17,27,3.20
2014,02,03,17,28,3.20
2014,02,03,17,29,3.20
2014,02,03,17,30,3.20
2014,02,03,17,31,3.20
2014,02,03,17,32,3.20
2014,02,03,17,33,3.20
2014,02,03,17,34,3.20
2014,02,03,17,35,3.20
2014,02,03,17,36,3.20
2014,02,03,17,37,3.20
2014,02,03,17,38,3.20
2014,02,03,17,39,3.20
2014,02,03,17,40,3.20
2014,02,03,17,41,3.20
2014,02,03,17,42,3.20
2014,02,03,17,43,3.20
2014,02,03,17,44,3.20
2014,02,03,17,45,3.20
2014,02,03,17,46,3.20
2014,02,03,17,47,3.20
2014,02,03,17,48,3.20
2014,02,03,17,49,3.20
2014,02,03,17,50,3.20
2014,02,03,17,51,3.10
2014,02,03,17,52,3.10
2014,02,03,17,53,3.10
2014,02,03,17,54,3.10
2014,02,03,17,55,3.10
2014,02,03,17,56,3.10
2014,02,03,17,57,3.10
2014,02,03,17,58,3.10
2014,02,03,17,59,3.10
2014,02,03,18,00,3.10
2014,02,03,18,01,3.10
2014,02,03,18,02,3.10
2014,02,03,18,03,3.10
2014,02,03,18,04,3.10
2014,02,03,18,05,3.10
2014,02,03,18,06,3.10